Owosso, MI

8:04 AM EST on February 24, 2017 (GMT -0500)
Owosso

Weather History for KRNP - November, 2012

Change the Weather History Date:

Saturday, November 24, 2012

  Actual Average (KFNT) Record (KFNT)
Temperature  
Mean Temperature 32 °F -  
Max Temperature 33 °F 42 °F 64 °F (1931)
Min Temperature 30 °F 28 °F 5 °F (1950)
Degree Days  
Heating Degree Days 34    
Moisture  
Dew Point 20 °F    
Average Humidity 63    
Maximum Humidity 71    
Minimum Humidity 54    
Precipitation  
Precipitation 0.00 in - - ()
Sea Level Pressure  
Sea Level Pressure 30.05 in    
Wind  
Wind Speed 12 mph (West)    
Max Wind Speed 18 mph    
Max Gust Speed 25 mph    
Visibility 10 miles    
Events      
Averages and records for this station are not official NWS values.
T = Trace of Precipitation, MM = Missing Value Source: NWS Daily Summary

Daily Weather History Graph

Daily Weather History Graph

Search for Another Location

Airport or City:

Trip Planner

Search our weather history database for the weather conditions in past years. The results will help you decide how hot, cold, wet, or windy it might be!

Date:

Astronomy

Nov. 24, 2012 Rise Set
Actual Time 7:40 AM EST 5:05 PM EST
Civil Twilight 7:09 AM EST 5:37 PM EST
Nautical Twilight 6:34 AM EST 6:12 PM EST
Astronomical Twilight 6:00 AM EST 6:46 PM EST
Moon 2:54 PM EST 3:52 AM EST
Length of Visible Light 10h 27m
Length of Day
9h 25m
Waxing Gibbous, 87% of the Moon is Illuminated
Nov 24
Waxing Gibbous
Nov 28
Full
Dec 6
Last Quarter
Dec 13
New
Dec 20
First Quarter

Hourly Weather History & Observations

Time (EST) Temp. Windchill Dew Point Humidity Pressure Visibility Wind Dir Wind Speed Gust Speed Precip Events Conditions
12:15 AM 33.3 °F 23.7 °F 21.9 °F 63% 30.00 in 10.0 mi West 13.8 mph 20.7 mph N/A   Overcast
12:34 AM 33.1 °F 23.4 °F 22.1 °F 64% 30.00 in 10.0 mi West 13.8 mph 23.0 mph N/A   Overcast
12:55 AM 33.1 °F 22.2 °F 21.7 °F 63% 30.00 in 10.0 mi WNW 17.3 mph 23.0 mph N/A   Overcast
1:15 AM 32.5 °F 22.3 °F 21.7 °F 64% 30.01 in 10.0 mi West 15.0 mph 20.7 mph N/A   Mostly Cloudy
1:35 AM 32.4 °F 20.9 °F 21.4 °F 64% 30.01 in 10.0 mi WNW 18.4 mph 25.3 mph N/A   Overcast
1:55 AM 32.0 °F 22.5 °F 21.7 °F 66% 30.01 in 10.0 mi WNW 12.7 mph 18.4 mph N/A   Mostly Cloudy
2:15 AM 32.0 °F 22.5 °F 21.2 °F 64% 30.01 in 10.0 mi West 12.7 mph - N/A   Mostly Cloudy
2:35 AM 32.2 °F 22.3 °F 21.2 °F 64% 30.01 in 10.0 mi WNW 13.8 mph 18.4 mph N/A   Overcast
2:55 AM 32.0 °F 22.1 °F 21.0 °F 64% 30.02 in 10.0 mi WNW 13.8 mph 24.2 mph N/A   Mostly Cloudy
3:15 AM 32.0 °F 21.6 °F 21.2 °F 64% 30.02 in 10.0 mi West 15.0 mph 20.7 mph N/A   Mostly Cloudy
3:35 AM 32.0 °F 22.5 °F 21.0 °F 64% 30.03 in 10.0 mi WNW 12.7 mph - N/A   Overcast
3:55 AM 32.0 °F 22.1 °F 20.8 °F 63% 30.02 in 10.0 mi WNW 13.8 mph 19.6 mph N/A   Overcast
4:15 AM 31.6 °F 21.2 °F 21.0 °F 65% 30.02 in 10.0 mi West 15.0 mph 19.6 mph N/A   Mostly Cloudy
4:35 AM 31.5 °F 21.8 °F 20.1 °F 63% 30.03 in 10.0 mi WNW 12.7 mph 18.4 mph N/A   Scattered Clouds
4:55 AM 31.5 °F 22.3 °F 20.1 °F 63% 30.03 in 10.0 mi WNW 11.5 mph - N/A   Scattered Clouds
5:14 AM 31.6 °F 23.7 °F 19.9 °F 62% 30.04 in 10.0 mi West 9.2 mph 20.7 mph N/A   Mostly Cloudy
5:35 AM 31.5 °F 22.9 °F 20.1 °F 63% 30.04 in 10.0 mi West 10.4 mph 17.3 mph N/A   Overcast
5:55 AM 31.5 °F 22.3 °F 20.3 °F 63% 30.04 in 10.0 mi West 11.5 mph 17.3 mph N/A   Overcast
6:15 AM 31.1 °F 20.5 °F 21.0 °F 66% 30.05 in 10.0 mi West 15.0 mph 18.4 mph N/A   Overcast
6:35 AM 30.9 °F 22.2 °F 21.6 °F 68% 30.05 in 10.0 mi West 10.4 mph - N/A   Overcast
6:55 AM 30.9 °F 22.2 °F 21.7 °F 69% 30.06 in 10.0 mi West 10.4 mph - N/A   Overcast
7:15 AM 30.2 °F 20.8 °F 21.7 °F 71% 30.06 in 10.0 mi West 11.5 mph - N/A   Overcast
7:35 AM 30.7 °F 20.9 °F 21.9 °F 70% 30.07 in 10.0 mi West 12.7 mph 16.1 mph N/A   Overcast
7:55 AM 31.1 °F 22.4 °F 22.1 °F 69% 30.07 in 10.0 mi West 10.4 mph 18.4 mph N/A   Overcast
8:15 AM 31.1 °F 21.4 °F 22.1 °F 69% 30.07 in 10.0 mi West 12.7 mph 16.1 mph N/A   Overcast
8:35 AM 31.5 °F 22.9 °F 22.1 °F 68% 30.08 in 10.0 mi WNW 10.4 mph 16.1 mph N/A   Overcast
8:55 AM 32.0 °F 21.6 °F 22.1 °F 67% 30.09 in 10.0 mi West 15.0 mph 19.6 mph N/A   Overcast
9:15 AM 32.0 °F 21.6 °F 21.7 °F 66% 30.09 in 10.0 mi WNW 15.0 mph - N/A   Overcast
9:35 AM 32.2 °F 22.3 °F 21.2 °F 64% 30.10 in 10.0 mi West 13.8 mph 18.4 mph N/A   Overcast
9:54 AM 32.2 °F 21.8 °F 21.0 °F 63% 30.10 in 10.0 mi WNW 15.0 mph 19.6 mph N/A   Overcast
10:15 AM 32.9 °F 24.1 °F 21.6 °F 63% 30.10 in 10.0 mi West 11.5 mph 15.0 mph N/A   Mostly Cloudy
10:35 AM 32.9 °F 22.8 °F 19.8 °F 59% 30.10 in 10.0 mi WNW 15.0 mph - N/A   Overcast
10:55 AM 33.1 °F 22.2 °F 18.7 °F 56% 30.10 in 10.0 mi WNW 17.3 mph 21.9 mph N/A   Overcast
11:15 AM 33.1 °F 23.0 °F 18.3 °F 55% 30.10 in 10.0 mi WNW 15.0 mph - N/A   Overcast
11:35 AM 33.3 °F 23.2 °F 18.3 °F 54% 30.10 in 10.0 mi WNW 15.0 mph 20.7 mph N/A   Overcast
11:55 AM 33.6 °F 25.0 °F 18.7 °F 54% 30.09 in 10.0 mi WNW 11.5 mph 19.6 mph N/A   Overcast
12:15 PM 33.6 °F 25.6 °F 18.7 °F 54% 30.08 in 10.0 mi WNW 10.4 mph 18.4 mph N/A   Overcast
12:35 PM 33.4 °F 23.9 °F 18.7 °F 55% 30.08 in 10.0 mi WNW 13.8 mph 17.3 mph N/A   Overcast
12:55 PM 33.4 °F 26.6 °F 19.0 °F 56% 30.08 in 10.0 mi NW 8.1 mph - N/A   Overcast
1:15 PM 33.3 °F 24.1 °F 19.0 °F 56% 30.08 in 10.0 mi WNW 12.7 mph 19.6 mph N/A   Overcast
1:34 PM 33.3 °F 24.1 °F 18.7 °F 55% 30.07 in 10.0 mi WNW 12.7 mph 19.6 mph N/A   Overcast
1:55 PM 33.1 °F 23.9 °F 19.2 °F 57% 30.08 in 10.0 mi WNW 12.7 mph 19.6 mph N/A   Overcast
2:15 PM 33.1 °F 23.0 °F 19.2 °F 57% 30.07 in 10.0 mi West 15.0 mph 19.6 mph N/A   Overcast
2:34 PM 33.3 °F 24.6 °F 19.6 °F 57% 30.07 in 10.0 mi West 11.5 mph - N/A   Overcast
2:55 PM 32.9 °F 22.8 °F 19.6 °F 58% 30.07 in 10.0 mi West 15.0 mph 20.7 mph N/A   Overcast
3:15 PM 32.9 °F 24.1 °F 20.3 °F 60% 30.08 in 10.0 mi West 11.5 mph 19.6 mph N/A   Overcast
3:35 PM 32.5 °F 23.7 °F 20.5 °F 61% 30.08 in 10.0 mi West 11.5 mph 17.3 mph N/A   Overcast
3:55 PM 32.4 °F 23.5 °F 20.7 °F 62% 30.08 in 10.0 mi West 11.5 mph 17.3 mph N/A   Overcast
4:15 PM 32.4 °F 24.6 °F 20.3 °F 61% 30.08 in 10.0 mi West 9.2 mph - N/A   Overcast
4:35 PM 32.2 °F 23.2 °F 20.3 °F 62% 30.07 in 10.0 mi West 11.5 mph - N/A   Overcast
4:55 PM 32.2 °F 24.4 °F 20.3 °F 62% 30.07 in 10.0 mi West 9.2 mph - N/A   Overcast
5:15 PM 32.0 °F 23.6 °F 20.8 °F 63% 30.08 in 10.0 mi West 10.4 mph - N/A   Overcast
5:35 PM 32.0 °F 23.0 °F 20.8 °F 63% 30.08 in 10.0 mi West 11.5 mph - N/A   Overcast
5:55 PM 32.0 °F 24.8 °F 20.8 °F 63% 30.08 in 10.0 mi West 8.1 mph - N/A   Overcast
6:15 PM 32.0 °F 23.6 °F 20.1 °F 62% 30.08 in 10.0 mi West 10.4 mph - N/A   Overcast
6:35 PM 31.8 °F 22.8 °F 19.6 °F 61% 30.07 in 10.0 mi WNW 11.5 mph 18.4 mph N/A   Overcast
6:54 PM 31.6 °F 24.4 °F 19.4 °F 61% 30.07 in 10.0 mi West 8.1 mph - N/A   Overcast
7:15 PM 31.6 °F 23.1 °F 20.1 °F 62% 30.07 in 10.0 mi West 10.4 mph - N/A   Overcast
7:35 PM 31.6 °F 23.1 °F 19.9 °F 62% 30.07 in 10.0 mi West 10.4 mph - N/A   Overcast
7:54 PM 31.3 °F 22.1 °F 19.8 °F 62% 30.06 in 10.0 mi West 11.5 mph 16.1 mph N/A   Overcast
8:15 PM 31.1 °F 23.7 °F 19.4 °F 62% 30.06 in 10.0 mi West 8.1 mph - N/A   Overcast
8:35 PM 31.1 °F 25.4 °F 19.4 °F 62% 30.05 in 10.0 mi West 5.8 mph - N/A   Overcast
8:55 PM 31.1 °F 24.5 °F 19.9 °F 63% 30.05 in 10.0 mi West 6.9 mph - N/A   Overcast
9:15 PM 30.9 °F 23.5 °F 20.1 °F 64% 30.05 in 10.0 mi West 8.1 mph - N/A   Overcast
9:35 PM 30.9 °F 26.2 °F 20.3 °F 65% 30.03 in 10.0 mi WSW 4.6 mph - N/A   Overcast
9:55 PM 30.7 °F 23.3 °F 20.5 °F 66% 30.02 in 10.0 mi West 8.1 mph - N/A   Overcast
10:15 PM 30.6 °F 25.8 °F 20.1 °F 65% 30.02 in 10.0 mi WSW 4.6 mph - N/A   Overcast
10:35 PM 30.7 °F 24.9 °F 20.3 °F 65% 30.02 in 10.0 mi West 5.8 mph - N/A   Overcast
10:55 PM 30.7 °F 27.3 °F 21.0 °F 67% 30.01 in 10.0 mi WSW 3.5 mph - N/A   Overcast
11:15 PM 30.6 °F 24.7 °F 21.0 °F 68% 30.01 in 10.0 mi WSW 5.8 mph - N/A   Overcast
11:34 PM 30.6 °F 27.1 °F 21.0 °F 68% 30.01 in 10.0 mi WSW 3.5 mph - N/A   Overcast
11:55 PM 30.6 °F - 21.2 °F 68% 30.01 in 10.0 mi Calm Calm - N/A   Overcast